[Iaude] MPEC Q42: 2020 PE5 [a=1.20,e=0.13,i=16.6,H=25.8]

mpec at marsden.cfa.harvard.edu mpec at marsden.cfa.harvard.edu
Mon Aug 17 07:45:47 EDT 2020


M.P.E.C. 2020-Q42                               Issued 2020 August 17, 11:44 UT

     The Minor Planet Electronic Circulars contain information on unusual
         minor planets and routine data on comets.  They are published
    on behalf of Division F of the International Astronomical Union by the
          Minor Planet Center, Smithsonian Astrophysical Observatory,
                          Cambridge, MA 02138, U.S.A.

             Prepared using the Tamkin Foundation Computer Network

                              MPC at CFA.HARVARD.EDU
            URL https://www.minorplanetcenter.net/    ISSN 1523-6714

                                    2020 PE5                                    


Observations:
     K20P05E* C2020 08 13.41649322 01 58.382-05 04 54.81         21.47wUEQ042F51
     K20P05E  C2020 08 13.42824322 01 54.202-05 03 01.07         21.77wUEQ042F51
     K20P05E  C2020 08 13.43997222 01 50.030-05 01 08.10         21.68wUEQ042F51
     K20P05E ^C2020 08 14.44612421 56 22.514-02 17 02.62         21.40GVEQ042568
     K20P05E ^C2020 08 14.44706921 56 22.170-02 16 53.25         21.35GVEQ042568
     K20P05E ^C2020 08 14.44801621 56 21.819-02 16 43.77         21.25GVEQ042568
     K20P05E ^C2020 08 14.44896421 56 21.473-02 16 34.45         21.58GVEQ042568
     K20P05E KC2020 08 17.17691821 40 55.45 +05 24 35.5          21.6 VuEQ042H21
     K20P05E KC2020 08 17.18420321 40 52.74 +05 25 50.1          21.8 VuEQ042H21
     K20P05E KC2020 08 17.19218921 40 49.71 +05 27 13.0          21.7 VuEQ042H21
     K20P05E ^C2020 08 17.40371321 39 34.985+06 04 00.05         21.62GVEQ042568
     K20P05E ^C2020 08 17.40466121 39 34.613+06 04 09.94         21.48GVEQ042568
     K20P05E ^C2020 08 17.40561121 39 34.246+06 04 19.60         21.58GVEQ042568

Observer details:
568 Mauna Kea.  Observers R. Wainscoat, C. Wipper, T. Burdullis, H.
    Januszewski.  Measurers R. Weryk, R. Wainscoat.  3.6-m Canada-France-
    Hawaii Telescope + CCD.
F51 Pan-STARRS 1, Haleakala.  Observers J. Bulger, T. Lowe, A. Schultz, M.
    Willman.  Measurers K. Chambers, S. Chastel, T. de Boer, L. Denneau, J.
    Fairlamb, H. Flewelling, M. Huber, C.-C. Lin, E. Magnier, Y. Ramanjooloo,
    R. Wainscoat, R. Weryk.  1.8-m Ritchey-Chretien + CCD.
H21 Astronomical Research Observatory, Westfield.  Observer R. Holmes.
    Measurers S. Foglia, L. Buzzi, T. Linder, R. Holmes.  0.76-m f/3.0
    astrograph + CCD.

Orbital elements:
2020 PE5                                                 Earth MOID = 0.0931 AU
Epoch 2020 May 31.0 TT = JDT 2459000.5                  Veres
M 253.21676              (2000.0)            P               Q
n   0.75410642     Peri.   65.92597     +0.87636421     -0.44474521
a   1.1954029      Node   319.77767     +0.26715913     +0.76827251
e   0.1349778      Incl.   16.63831     +0.40076398     +0.46039011
P   1.31           H   25.8           G   0.15           U   8
Residuals in seconds of arc
200813 F51  0.0   0.4-    200814 568  0.1-  0.0     200817 568  0.1+  0.0
200813 F51  0.0   0.2+    200814 568  0.1-  0.1-    200817 568  0.0   0.1+
200813 F51  0.0   0.2+    200817 H21  0.5-  0.1+    200817 568  0.0   0.0
200814 568  0.0   0.1-    200817 H21  0.2+  0.4-
200814 568  0.0   0.1-    200817 H21  0.2+  0.2+

Ephemeris:
2020 PE5                 a,e,i = 1.20, 0.13, 17                  q = 1.0341
Date    TT    R. A. (2000) Decl.     Delta      r    Elong.  Phase     V
2020 07 18    23 19 26.1 -41 29 17   0.2043  1.1623   131.7    40.8    24.3
...
2020 08 02    22 51 00.5 -28 21 46   0.1314  1.1307   150.2    26.5    22.9
...
2020 08 10    22 19 12.3 -13 38 00   0.1039  1.1146   165.5    13.1    21.9
...
2020 08 16    21 47 40.9 +02 04 13   0.09358 1.1030   164.1    14.5    21.7
2020 08 17    21 41 55.6 +04 55 01   0.09296 1.1011   161.6    16.9    21.7
2020 08 18    21 36 04.0 +07 46 29   0.09268 1.0992   158.8    19.4    21.8
...
2020 08 24    20 59 46.7 +23 54 52   0.09762 1.0884   140.8    36.0    22.4
...
2020 09 01    20 13 34.4 +39 18 37   0.1176  1.0751   121.4    53.3    23.3
...
2020 09 16    19 10 29.8 +52 27 52   0.1707  1.0543   102.0    68.9    24.5

M. P. C. Staff               (C) Copyright 2020 MPC           M.P.E.C. 2020-Q42




More information about the Iaude mailing list